Henrik Krøyer Holme

KL  EN  DA
ASIAQ
Weather Now GREENLAND SURVEY
Updated [WGT/WGST] Temperature [°C] Wind [m/s] Air pressure [hPa] Relative humidity [%] Precipitation [mm]
Present Wind chill Speed Max
04.09 06:00n/an/an/an/an/an/an/a
04.09 05:00-3,2-6,32,0 ⇘3,0101093n/a
04.09 04:00-3,8-7,02,0 ⇘3,0101092n/a
04.09 03:00-3,0-7,64,0 ⇓5,0101087n/a
04.09 02:00-3,5-5,82,0 ⇘3,0101191n/a
04.09 01:00-3,80,01,0 ⇓1,0101195n/a
04.09 00:00-3,1-7,84,0 ⇓5,0101186n/a
03.09 23:00-3,0-7,23,0 ⇘4,0101186n/a
03.09 22:00-3,2-7,43,0 ⇘4,0101196n/a
03.09 21:00-3,2-7,43,0 ⇒4,0101196n/a
03.09 20:00-3,1-7,33,0 ⇘4,0101194n/a
03.09 19:00-3,2-7,43,0 ⇘4,0101193n/a
03.09 18:00-3,40,01,0 ⇘2,0101196n/a
03.09 17:00-3,50,01,0 ⇒2,0101295n/a
03.09 16:00-3,40,01,0 ⇘2,0101294n/a
03.09 15:00-3,6-6,72,0 ⇓3,0101294n/a
03.09 14:00-3,30,01,0 ⇘2,0101291n/a
03.09 13:00-3,0-5,22,0 ⇘2,0101284n/a
03.09 12:00-3,0-5,22,0 ⇓3,0101284n/a
03.09 11:00-3,7-6,82,0 ⇓3,0101282n/a
03.09 10:00-3,4-6,52,0 ⇓3,0101276n/a
03.09 09:00-3,60,01,0 ⇐1,0101277n/a
03.09 08:00-4,40,01,0 ⇙1,0101281n/a
03.09 07:00-4,8-7,32,0 ⇘2,0101284n/a
03.09 06:00-4,8-7,32,0 ⇓2,0101286n/a
Position: (80.649444,-13.711944)

[Back]